Regional Weather Roundup
Issued by NWS Bismarck, ND

Home | Current Version | Previous Version | Text Only | Print | Product List | Glossary On
Versions: 1 2 3 4 5 6 7 8 9 10 11 12 13 14 15 16 17 18 19 20 21 22 23 24 25 26 27 28 29 30 31 32 33 34 35 36 37 38 39 40 41 42 43 44 45 46 47 48 49 50
000
ASUS43 KBIS 282020
RWRBIS

NWR BROADCAST TEXT
NATIONAL WEATHER SERVICE BISMARCK ND
200 PM CST WED JAN 28 2015

NOTE: "FAIR" INDICATES FEW OR NO CLOUDS BELOW 12,000 FEET WITH NO
SIGNIFICANT WEATHER AND/OR OBSTRUCTIONS TO VISIBILITY.


CITY           SKY/WX    TMP DP  RH WIND       PRES   REMARKS
WILLISTON      CLOUDY    32  28  85 NW17G25   30.05R
MINOT          CLOUDY    28  26  92 NW18      29.91R FOG     WCI  15
MINOT AFB      FRZ DRZL  28  28 100 NW15      29.92R WCI  17
BISMARCK       CLOUDY    33  31  92 NW18G28   29.85R
DICKINSON      CLOUDY    32  29  88 NW26G32   29.93R FOG     WCI  18
GARRISON         N/A     31  29  92 N17       29.89R WCI  19
HETTINGER ARPT CLOUDY    45  33  63 NW33G39   29.89R
JAMESTOWN      CLOUDY    32  31  96 N15       29.75R FOG
BEACH          CLOUDY    32  32 100 NW23G31   30.03R FOG     WCI  19
CARRINGTON     CLOUDY    32  32 100 MISG      29.79S FOG
CROSBY         CLOUDY    28  28 100 NW20G29   30.02R WCI  15
HARVEY         CLOUDY    32  32 100 N15       29.83R FOG
HAZEN          CLOUDY    32  32 100 NW15G23   29.93R FOG
LINTON         FAIR      39  39 100 NW18G25   29.78R
MANDAN         CLOUDY    34  32  93 NW25G31   29.84R
OAKES            N/A     37  37 100 CALM      29.72S
RUGBY          CLOUDY    28  28 100 N17       29.86R WCI  16
STANLEY        CLOUDY    28  28 100 NW13G23   29.94R FOG     WCI  18
TIOGA          CLOUDY    28  28 100 NW18G31   30.01R WCI  16
WATFORD CITY   CLOUDY    32  32 100 NW15      29.99R FOG
$$

CITY           SKY/WX    TMP DP  RH WIND       PRES   REMARKS
GRAND FORKS    CLOUDY    34  34 100 W6        29.77R FOG
GRAND FORKS AF CLOUDY    33  32  94 NW6       29.78R FOG
DEVILS LAKE    CLOUDY    32  28  86 N16       29.80R
FARGO          CLOUDY    36  32  85 S10       29.75F FOG
CANDO          CLOUDY    28  28 100 N17G23    29.83R FOG     WCI  16
CAVALIER       FOG       32  32 100 N9        29.79S VSB 1/4
GWINNER        CLOUDY    36  36 100 E5        29.73F
LANGDON        CLOUDY    32  30  93 N17       29.78R FOG
ROLLA          CLOUDY    25  25 100 N15       29.85R FOG     WCI  12
WALHALLA         N/A     32  32 100 N13       29.81S FOG
$$

CITY           SKY/WX    TMP DP  RH WIND       PRES   REMARKS
ABERDEEN       CLOUDY    41  34  76 CALM      29.72R
MOBRIDGE       CLOUDY    53  36  52 NW20G28   29.74R
BUFFALO          N/A     48  31  51 NW39G48   29.86R
RAPID CITY     CLOUDY    57  25  29 NW32G44   29.90S
GLASGOW        CLOUDY    34  29  82 NW18      30.16R
SIDNEY         CLOUDY    34  28  80 NW18G25   30.09R
WOLF POINT     CLOUDY    39  31  72 W8        30.11R
GLENDIVE       CLOUDY    34  30  86 NW18G24   30.10R
MILES CITY     CLOUDY    37  30  75 N22G32    30.14R
BAKER          CLOUDY    33  30  88 NW26G36   30.03R FOG     WCI  20
$$

CITY           SKY/WX    TMP DP  RH WIND       PRES   REMARKS
BILLINGS       MOSUNNY   54  24  31 N17       30.16R
GREAT FALLS    SUNNY     46  32  58 N9        30.24R
REGINA         CLOUDY    28  27  93 NW23G29   30.06R WCI  14
ESTEVAN        CLOUDY    27  25  93 NW22      30.00R WCI  12
$$



USA.gov is the U.S. government's official web portal to all federal, state and local government web resources and services.